Year,Month,Day,Hour,Minute,Value (Times are PST for temperature in C)
2018,06,18,00,00,21.90
2018,06,18,00,01,21.90
2018,06,18,00,02,21.90
2018,06,18,00,03,21.90
2018,06,18,00,04,21.90
2018,06,18,00,05,21.90
2018,06,18,00,06,21.90
2018,06,18,00,07,21.80
2018,06,18,00,08,21.80
2018,06,18,00,09,21.80
2018,06,18,00,10,21.80
2018,06,18,00,11,21.80
2018,06,18,00,12,21.70
2018,06,18,00,13,21.60
2018,06,18,00,14,21.50
2018,06,18,00,15,21.50
2018,06,18,00,16,21.40
2018,06,18,00,17,21.40
2018,06,18,00,18,21.40
2018,06,18,00,19,21.30
2018,06,18,00,20,21.30
2018,06,18,00,21,21.30
2018,06,18,00,22,21.20
2018,06,18,00,23,21.10
2018,06,18,00,24,21.00
2018,06,18,00,25,20.90
2018,06,18,00,26,20.70
2018,06,18,00,27,20.60
2018,06,18,00,28,20.40
2018,06,18,00,29,20.30
2018,06,18,00,30,20.20
2018,06,18,00,31,20.10
2018,06,18,00,32,20.00
2018,06,18,00,33,19.90
2018,06,18,00,34,19.80
2018,06,18,00,35,19.70
2018,06,18,00,36,19.60
2018,06,18,00,37,19.50
2018,06,18,00,38,19.50
2018,06,18,00,39,19.40
2018,06,18,00,40,19.30
2018,06,18,00,41,19.20
2018,06,18,00,42,19.20
2018,06,18,00,43,19.10
2018,06,18,00,44,19.00
2018,06,18,00,45,18.90
2018,06,18,00,46,18.90
2018,06,18,00,47,18.90
2018,06,18,00,48,18.90
2018,06,18,00,49,18.90
2018,06,18,00,50,18.90
2018,06,18,00,51,18.90
2018,06,18,00,52,18.90
2018,06,18,00,53,18.90
2018,06,18,00,54,18.90
2018,06,18,00,55,18.90
2018,06,18,00,56,19.00
2018,06,18,00,57,19.00
2018,06,18,00,58,19.10
2018,06,18,00,59,19.10
2018,06,18,01,00,19.20
2018,06,18,01,01,19.20
2018,06,18,01,02,19.30
2018,06,18,01,03,19.30
2018,06,18,01,04,19.30
2018,06,18,01,05,19.30
2018,06,18,01,06,19.30
2018,06,18,01,07,19.30
2018,06,18,01,08,19.20
2018,06,18,01,09,19.10
2018,06,18,01,10,19.10
2018,06,18,01,11,19.00
2018,06,18,01,12,19.00
2018,06,18,01,13,18.90
2018,06,18,01,14,18.90
2018,06,18,01,15,18.90
2018,06,18,01,16,18.90
2018,06,18,01,17,18.90
2018,06,18,01,18,18.90
2018,06,18,01,19,18.80
2018,06,18,01,20,18.80
2018,06,18,01,21,18.80
2018,06,18,01,22,18.70
2018,06,18,01,23,18.70
2018,06,18,01,24,18.60
2018,06,18,01,25,18.60
2018,06,18,01,26,18.50
2018,06,18,01,27,18.40
2018,06,18,01,28,18.40
2018,06,18,01,29,18.30
2018,06,18,01,30,18.30
2018,06,18,01,31,18.20
2018,06,18,01,32,18.20
2018,06,18,01,33,18.10
2018,06,18,01,34,18.00
2018,06,18,01,35,18.00
2018,06,18,01,36,18.00
2018,06,18,01,37,18.00
2018,06,18,01,38,18.00
2018,06,18,01,39,18.00
2018,06,18,01,40,18.00
2018,06,18,01,41,18.00
2018,06,18,01,42,18.00
2018,06,18,01,43,18.00
2018,06,18,01,44,18.10
2018,06,18,01,45,18.20
2018,06,18,01,46,18.20
2018,06,18,01,47,18.20
2018,06,18,01,48,18.20
2018,06,18,01,49,18.10
2018,06,18,01,50,18.00
2018,06,18,01,51,18.00
2018,06,18,01,52,18.00
2018,06,18,01,53,17.90
2018,06,18,01,54,17.90
2018,06,18,01,55,17.90
2018,06,18,01,56,17.90
2018,06,18,01,57,17.90
2018,06,18,01,58,17.80
2018,06,18,01,59,17.70
2018,06,18,02,00,17.60
2018,06,18,02,01,17.40
2018,06,18,02,02,17.30
2018,06,18,02,03,17.20
2018,06,18,02,04,17.10
2018,06,18,02,05,17.00
2018,06,18,02,06,16.90
2018,06,18,02,07,16.80
2018,06,18,02,08,16.70
2018,06,18,02,09,16.70
2018,06,18,02,10,16.60
2018,06,18,02,11,16.50
2018,06,18,02,12,16.50
2018,06,18,02,13,16.50
2018,06,18,02,14,16.40
2018,06,18,02,15,16.40
2018,06,18,02,16,16.30
2018,06,18,02,17,16.30
2018,06,18,02,18,16.20
2018,06,18,02,19,16.10
2018,06,18,02,20,16.10
2018,06,18,02,21,16.00
2018,06,18,02,22,16.00
2018,06,18,02,23,15.90
2018,06,18,02,24,15.80
2018,06,18,02,25,15.80
2018,06,18,02,26,15.80
2018,06,18,02,27,15.90
2018,06,18,02,28,15.90
2018,06,18,02,29,15.90
2018,06,18,02,30,15.90
2018,06,18,02,31,15.90
2018,06,18,02,32,16.00
2018,06,18,02,33,16.10
2018,06,18,02,34,16.20
2018,06,18,02,35,16.20
2018,06,18,02,36,16.30
2018,06,18,02,37,16.30
2018,06,18,02,38,16.40
2018,06,18,02,39,16.40
2018,06,18,02,40,16.40
2018,06,18,02,41,16.40
2018,06,18,02,42,16.30
2018,06,18,02,43,16.30
2018,06,18,02,44,16.20
2018,06,18,02,45,16.10
2018,06,18,02,46,16.00
2018,06,18,02,47,15.90
2018,06,18,02,48,15.80
2018,06,18,02,49,15.60
2018,06,18,02,50,15.50
2018,06,18,02,51,15.40
2018,06,18,02,52,15.20
2018,06,18,02,53,15.20
2018,06,18,02,54,15.20
2018,06,18,02,55,15.20
2018,06,18,02,56,15.30
2018,06,18,02,57,15.40
2018,06,18,02,58,15.50
2018,06,18,02,59,15.60
2018,06,18,03,00,15.60
2018,06,18,03,01,15.70
2018,06,18,03,02,15.70
2018,06,18,03,03,15.70
2018,06,18,03,04,15.60
2018,06,18,03,05,15.60
2018,06,18,03,06,15.50
2018,06,18,03,07,15.40
2018,06,18,03,08,15.40
2018,06,18,03,09,15.20
2018,06,18,03,10,15.10
2018,06,18,03,11,15.00
2018,06,18,03,12,15.00
2018,06,18,03,13,15.00
2018,06,18,03,14,15.00
2018,06,18,03,15,15.00
2018,06,18,03,16,15.00
2018,06,18,03,17,15.00
2018,06,18,03,18,15.00
2018,06,18,03,19,15.00
2018,06,18,03,20,15.00
2018,06,18,03,21,15.00
2018,06,18,03,22,15.00
2018,06,18,03,23,15.00
2018,06,18,03,24,15.00
2018,06,18,03,25,15.00
2018,06,18,03,26,15.00
2018,06,18,03,27,15.00
2018,06,18,03,28,15.00
2018,06,18,03,29,15.00
2018,06,18,03,30,15.00
2018,06,18,03,31,15.00
2018,06,18,03,32,15.00
2018,06,18,03,33,14.90
2018,06,18,03,34,14.80
2018,06,18,03,35,14.80
2018,06,18,03,36,14.90
2018,06,18,03,37,14.90
2018,06,18,03,38,14.90
2018,06,18,03,39,14.90
2018,06,18,03,40,14.80
2018,06,18,03,41,14.80
2018,06,18,03,42,14.80
2018,06,18,03,43,14.70
2018,06,18,03,44,14.70
2018,06,18,03,45,14.60
2018,06,18,03,46,14.60
2018,06,18,03,47,14.60
2018,06,18,03,48,14.60
2018,06,18,03,49,14.60
2018,06,18,03,50,14.70
2018,06,18,03,51,14.70
2018,06,18,03,52,14.80
2018,06,18,03,53,14.80
2018,06,18,03,54,14.90
2018,06,18,03,55,14.90
2018,06,18,03,56,14.90
2018,06,18,03,57,14.80
2018,06,18,03,58,14.80
2018,06,18,03,59,14.70
2018,06,18,04,00,14.60
2018,06,18,04,01,14.50
2018,06,18,04,02,14.40
2018,06,18,04,03,14.20
2018,06,18,04,04,14.10
2018,06,18,04,05,14.10
2018,06,18,04,06,14.00
2018,06,18,04,07,13.90
2018,06,18,04,08,13.90
2018,06,18,04,09,13.80
2018,06,18,04,10,13.80
2018,06,18,04,11,13.70
2018,06,18,04,12,13.70
2018,06,18,04,13,13.70
2018,06,18,04,14,13.70
2018,06,18,04,15,13.70
2018,06,18,04,16,13.80
2018,06,18,04,17,13.80
2018,06,18,04,18,13.80
2018,06,18,04,19,13.80
2018,06,18,04,20,13.90
2018,06,18,04,21,13.90
2018,06,18,04,22,13.80
2018,06,18,04,23,13.80
2018,06,18,04,24,13.80
2018,06,18,04,25,13.80
2018,06,18,04,26,13.70
2018,06,18,04,27,13.70
2018,06,18,04,28,13.70
2018,06,18,04,29,13.60
2018,06,18,04,30,13.60
2018,06,18,04,31,13.60
2018,06,18,04,32,13.60
2018,06,18,04,33,13.60
2018,06,18,04,34,13.70
2018,06,18,04,35,13.80
2018,06,18,04,36,13.90
2018,06,18,04,37,14.00
2018,06,18,04,38,14.20
2018,06,18,04,39,14.20
2018,06,18,04,40,14.30
2018,06,18,04,41,14.30
2018,06,18,04,42,14.30
2018,06,18,04,43,14.30
2018,06,18,04,44,14.30
2018,06,18,04,45,14.20
2018,06,18,04,46,14.20
2018,06,18,04,47,14.10
2018,06,18,04,48,14.00
2018,06,18,04,49,13.90
2018,06,18,04,50,13.90
2018,06,18,04,51,13.80
2018,06,18,04,52,13.80
2018,06,18,04,53,13.80
2018,06,18,04,54,13.80
2018,06,18,04,55,13.90
2018,06,18,04,56,13.90
2018,06,18,04,57,13.90
2018,06,18,04,58,14.00
2018,06,18,04,59,14.00
2018,06,18,05,00,14.10
2018,06,18,05,01,14.20
2018,06,18,05,02,14.30
2018,06,18,05,03,14.40
2018,06,18,05,04,14.50
2018,06,18,05,05,14.60
2018,06,18,05,06,14.80
2018,06,18,05,07,14.90
2018,06,18,05,08,15.00
2018,06,18,05,09,15.00
2018,06,18,05,10,15.00
2018,06,18,05,11,15.00
2018,06,18,05,12,15.00
2018,06,18,05,13,15.00
2018,06,18,05,14,15.00
2018,06,18,05,15,15.00
2018,06,18,05,16,15.10
2018,06,18,05,17,15.20
2018,06,18,05,18,15.30
2018,06,18,05,19,15.40
2018,06,18,05,20,15.50
2018,06,18,05,21,15.60
2018,06,18,05,22,15.70
2018,06,18,05,23,15.70
2018,06,18,05,24,15.80
2018,06,18,05,25,15.90
2018,06,18,05,26,16.00
2018,06,18,05,27,16.10
2018,06,18,05,28,16.20
2018,06,18,05,29,16.20
2018,06,18,05,30,16.30
2018,06,18,05,31,16.30
2018,06,18,05,32,16.30
2018,06,18,05,33,16.40
2018,06,18,05,34,16.40
2018,06,18,05,35,16.40
2018,06,18,05,36,16.30
2018,06,18,05,37,16.40
2018,06,18,05,38,16.40
2018,06,18,05,39,16.40
2018,06,18,05,40,16.40
2018,06,18,05,41,16.50
2018,06,18,05,42,16.60
2018,06,18,05,43,16.60
2018,06,18,05,44,16.60
2018,06,18,05,45,16.70
2018,06,18,05,46,16.80
2018,06,18,05,47,16.80
2018,06,18,05,48,16.80
2018,06,18,05,49,16.90
2018,06,18,05,50,16.90
2018,06,18,05,51,16.90
2018,06,18,05,52,16.90
2018,06,18,05,53,16.90
2018,06,18,05,54,16.90
2018,06,18,05,55,16.90
2018,06,18,05,56,16.90
2018,06,18,05,57,16.90
2018,06,18,05,58,17.00
2018,06,18,05,59,17.20
2018,06,18,06,00,17.40
2018,06,18,06,01,17.50
2018,06,18,06,02,17.70
2018,06,18,06,03,17.80
2018,06,18,06,04,17.80
2018,06,18,06,05,17.80
2018,06,18,06,06,17.80
2018,06,18,06,07,17.80
2018,06,18,06,08,17.80
2018,06,18,06,09,17.80
2018,06,18,06,10,17.80
2018,06,18,06,11,17.90
2018,06,18,06,12,17.90
2018,06,18,06,13,18.00
2018,06,18,06,14,18.10
2018,06,18,06,15,18.20
2018,06,18,06,16,18.20
2018,06,18,06,17,18.20
2018,06,18,06,18,18.20
2018,06,18,06,19,18.30
2018,06,18,06,20,18.30
2018,06,18,06,21,18.30
2018,06,18,06,22,18.20
2018,06,18,06,23,18.20
2018,06,18,06,24,18.20
2018,06,18,06,25,18.20
2018,06,18,06,26,18.30
2018,06,18,06,27,18.30
2018,06,18,06,28,18.40
2018,06,18,06,29,18.50
2018,06,18,06,30,18.50
2018,06,18,06,31,18.50
2018,06,18,06,32,18.60
2018,06,18,06,33,18.60
2018,06,18,06,34,18.60
2018,06,18,06,35,18.60
2018,06,18,06,36,18.60
2018,06,18,06,37,18.60
2018,06,18,06,38,18.60
2018,06,18,06,39,18.60
2018,06,18,06,40,18.60
2018,06,18,06,41,18.60
2018,06,18,06,42,18.60
2018,06,18,06,43,18.70
2018,06,18,06,44,18.70
2018,06,18,06,45,18.80
2018,06,18,06,46,18.80
2018,06,18,06,47,18.80
2018,06,18,06,48,18.80
2018,06,18,06,49,18.90
2018,06,18,06,50,18.90
2018,06,18,06,51,18.90
2018,06,18,06,52,19.00
2018,06,18,06,53,19.10
2018,06,18,06,54,19.10
2018,06,18,06,55,19.20
2018,06,18,06,56,19.20
2018,06,18,06,57,19.20
2018,06,18,06,58,19.20
2018,06,18,06,59,19.30
2018,06,18,07,00,19.30
2018,06,18,07,01,19.30
2018,06,18,07,02,19.30
2018,06,18,07,03,19.40
2018,06,18,07,04,19.50
2018,06,18,07,05,19.60
2018,06,18,07,06,19.60
2018,06,18,07,07,19.70
2018,06,18,07,08,19.80
2018,06,18,07,09,19.80
2018,06,18,07,10,19.90
2018,06,18,07,11,19.90
2018,06,18,07,12,20.00
2018,06,18,07,13,20.00
2018,06,18,07,14,20.10
2018,06,18,07,15,20.10
2018,06,18,07,16,20.20
2018,06,18,07,17,20.20
2018,06,18,07,18,20.30
2018,06,18,07,19,20.30
2018,06,18,07,20,20.40
2018,06,18,07,21,20.40
2018,06,18,07,22,20.50
2018,06,18,07,23,20.60
2018,06,18,07,24,20.60
2018,06,18,07,25,20.70
2018,06,18,07,26,20.70
2018,06,18,07,27,20.80
2018,06,18,07,28,20.90
2018,06,18,07,29,20.90
2018,06,18,07,30,20.90
2018,06,18,07,31,21.00
2018,06,18,07,32,21.00
2018,06,18,07,33,21.10
2018,06,18,07,34,21.10
2018,06,18,07,35,21.10
2018,06,18,07,36,21.10
2018,06,18,07,37,21.20
2018,06,18,07,38,21.20
2018,06,18,07,39,21.20
2018,06,18,07,40,21.10
2018,06,18,07,41,21.10
2018,06,18,07,42,21.10
2018,06,18,07,43,21.10
2018,06,18,07,44,21.10
2018,06,18,07,45,21.20
2018,06,18,07,46,21.20
2018,06,18,07,47,21.20
2018,06,18,07,48,21.20
2018,06,18,07,49,21.20
2018,06,18,07,50,21.30
2018,06,18,07,51,21.30
2018,06,18,07,52,21.30
2018,06,18,07,53,21.30
2018,06,18,07,54,21.40
2018,06,18,07,55,21.40
2018,06,18,07,56,21.40
2018,06,18,07,57,21.40
2018,06,18,07,58,21.50
2018,06,18,07,59,21.50
2018,06,18,08,00,21.50
2018,06,18,08,01,21.50
2018,06,18,08,02,21.50
2018,06,18,08,03,21.60
2018,06,18,08,04,21.60
2018,06,18,08,05,21.60
2018,06,18,08,06,21.60
2018,06,18,08,07,21.70
2018,06,18,08,08,21.70
2018,06,18,08,09,21.70
2018,06,18,08,10,21.70
2018,06,18,08,11,21.70
2018,06,18,08,12,21.70
2018,06,18,08,13,21.70
2018,06,18,08,14,21.80
2018,06,18,08,15,21.80
2018,06,18,08,16,21.80
2018,06,18,08,17,21.90
2018,06,18,08,18,21.90
2018,06,18,08,19,22.00
2018,06,18,08,20,22.10
2018,06,18,08,21,22.10
2018,06,18,08,22,22.10
2018,06,18,08,23,22.10
2018,06,18,08,24,22.20
2018,06,18,08,25,22.20
2018,06,18,08,26,22.20
2018,06,18,08,27,22.20
2018,06,18,08,28,22.20
2018,06,18,08,29,22.20
2018,06,18,08,30,22.20
2018,06,18,08,31,22.10
2018,06,18,08,32,22.10
2018,06,18,08,33,22.10
2018,06,18,08,34,22.10
2018,06,18,08,35,22.10
2018,06,18,08,36,22.10
2018,06,18,08,37,22.10
2018,06,18,08,38,22.10
2018,06,18,08,39,22.20
2018,06,18,08,40,22.20
2018,06,18,08,41,22.30
2018,06,18,08,42,22.30
2018,06,18,08,43,22.30
2018,06,18,08,44,22.30
2018,06,18,08,45,22.30
2018,06,18,08,46,22.30
2018,06,18,08,47,22.30
2018,06,18,08,48,22.30
2018,06,18,08,49,22.30
2018,06,18,08,50,22.30
2018,06,18,08,51,22.40
2018,06,18,08,52,22.40
2018,06,18,08,53,22.50
2018,06,18,08,54,22.50
2018,06,18,08,55,22.60
2018,06,18,08,56,22.60
2018,06,18,08,57,22.60
2018,06,18,08,58,22.70
2018,06,18,08,59,22.70
2018,06,18,09,00,22.70
2018,06,18,09,01,22.80
2018,06,18,09,02,22.80
2018,06,18,09,03,22.80
2018,06,18,09,04,22.80
2018,06,18,09,05,22.80
2018,06,18,09,06,22.80
2018,06,18,09,07,22.80
2018,06,18,09,08,22.80
2018,06,18,09,09,22.80
2018,06,18,09,10,22.80
2018,06,18,09,11,22.70
2018,06,18,09,12,22.80
2018,06,18,09,13,22.80
2018,06,18,09,14,22.80
2018,06,18,09,15,22.80
2018,06,18,09,16,22.80
2018,06,18,09,17,22.80
2018,06,18,09,18,22.80
2018,06,18,09,19,22.80
2018,06,18,09,20,22.80
2018,06,18,09,21,22.80
2018,06,18,09,22,22.80
2018,06,18,09,23,22.90
2018,06,18,09,24,22.90
2018,06,18,09,25,22.90
2018,06,18,09,26,23.00
2018,06,18,09,27,23.00
2018,06,18,09,28,23.00
2018,06,18,09,29,23.00
2018,06,18,09,30,23.10
2018,06,18,09,31,23.10
2018,06,18,09,32,23.20
2018,06,18,09,33,23.20
2018,06,18,09,34,23.20
2018,06,18,09,35,23.30
2018,06,18,09,36,23.20
2018,06,18,09,37,23.20
2018,06,18,09,38,23.20
2018,06,18,09,39,23.20
2018,06,18,09,40,23.20
2018,06,18,09,41,23.20
2018,06,18,09,42,23.30
2018,06,18,09,43,23.40
2018,06,18,09,44,23.40
2018,06,18,09,45,23.50
2018,06,18,09,46,23.50
2018,06,18,09,47,23.40
2018,06,18,09,48,23.40
2018,06,18,09,49,23.40
2018,06,18,09,50,23.30
2018,06,18,09,51,23.40
2018,06,18,09,52,23.40
2018,06,18,09,53,23.40
2018,06,18,09,54,23.40
2018,06,18,09,55,23.40
2018,06,18,09,56,23.40
2018,06,18,09,57,23.30
2018,06,18,09,58,23.30
2018,06,18,09,59,23.30
2018,06,18,10,00,23.30
2018,06,18,10,01,23.10
2018,06,18,10,02,23.00
2018,06,18,10,03,23.00
2018,06,18,10,04,23.00
2018,06,18,10,05,23.10
2018,06,18,10,06,23.10
2018,06,18,10,07,23.20
2018,06,18,10,08,23.20
2018,06,18,10,09,23.30
2018,06,18,10,10,23.30
2018,06,18,10,11,23.30
2018,06,18,10,12,23.40
2018,06,18,10,13,23.40
2018,06,18,10,14,23.50
2018,06,18,10,15,23.60
2018,06,18,10,16,23.60
2018,06,18,10,17,23.70
2018,06,18,10,18,23.80
2018,06,18,10,19,23.80
2018,06,18,10,20,23.80
2018,06,18,10,21,23.90
2018,06,18,10,22,23.90
2018,06,18,10,23,23.90
2018,06,18,10,24,23.90
2018,06,18,10,25,23.90
2018,06,18,10,26,23.90
2018,06,18,10,27,24.00
2018,06,18,10,28,24.10
2018,06,18,10,29,24.00
2018,06,18,10,30,24.00
2018,06,18,10,31,23.90
2018,06,18,10,32,23.90
2018,06,18,10,33,23.90
2018,06,18,10,34,24.00
2018,06,18,10,35,24.00
2018,06,18,10,36,23.90
2018,06,18,10,37,24.00
2018,06,18,10,38,24.00
2018,06,18,10,39,24.20
2018,06,18,10,40,24.10
2018,06,18,10,41,24.10
2018,06,18,10,42,24.20
2018,06,18,10,43,24.30
2018,06,18,10,44,24.30
2018,06,18,10,45,24.40
2018,06,18,10,46,24.40
2018,06,18,10,47,24.40
2018,06,18,10,48,24.50
2018,06,18,10,49,24.50
2018,06,18,10,50,24.60
2018,06,18,10,51,24.50
2018,06,18,10,52,24.50
2018,06,18,10,53,24.40
2018,06,18,10,54,24.40
2018,06,18,10,55,24.50
2018,06,18,10,56,24.70
2018,06,18,10,57,24.90
2018,06,18,10,58,24.80
2018,06,18,10,59,24.80
2018,06,18,11,00,24.80
2018,06,18,11,01,24.90
2018,06,18,11,02,24.90
2018,06,18,11,03,25.00
2018,06,18,11,04,24.90
2018,06,18,11,05,24.90
2018,06,18,11,06,24.90
2018,06,18,11,07,24.90
2018,06,18,11,08,24.90
2018,06,18,11,09,24.90
2018,06,18,11,10,25.00
2018,06,18,11,11,25.10
2018,06,18,11,12,25.10
2018,06,18,11,13,25.00
2018,06,18,11,14,24.90
2018,06,18,11,15,24.80
2018,06,18,11,16,24.80
2018,06,18,11,17,24.80
2018,06,18,11,18,24.70
2018,06,18,11,19,24.70
2018,06,18,11,20,24.80
2018,06,18,11,21,24.80
2018,06,18,11,22,24.80
2018,06,18,11,23,25.00
2018,06,18,11,24,25.20
2018,06,18,11,25,25.30
2018,06,18,11,26,25.50
2018,06,18,11,27,25.60
2018,06,18,11,28,25.50
2018,06,18,11,29,25.50
2018,06,18,11,30,25.60
2018,06,18,11,31,25.60
2018,06,18,11,32,25.70
2018,06,18,11,33,25.70
2018,06,18,11,34,25.60
2018,06,18,11,35,25.60
2018,06,18,11,36,25.70
2018,06,18,11,37,25.80
2018,06,18,11,38,25.90
2018,06,18,11,39,25.90
2018,06,18,11,40,25.90
2018,06,18,11,41,25.90
2018,06,18,11,42,25.90
2018,06,18,11,43,25.90
2018,06,18,11,44,25.90
2018,06,18,11,45,26.00
2018,06,18,11,46,26.00
2018,06,18,11,47,26.10
2018,06,18,11,48,26.10
2018,06,18,11,49,26.20
2018,06,18,11,50,26.30
2018,06,18,11,51,26.30
2018,06,18,11,52,26.40
2018,06,18,11,53,26.40
2018,06,18,11,54,26.40
2018,06,18,11,55,26.50
2018,06,18,11,56,26.50
2018,06,18,11,57,26.60
2018,06,18,11,58,26.70
2018,06,18,11,59,26.60
2018,06,18,12,00,26.50
2018,06,18,12,01,26.50
2018,06,18,12,02,26.50
2018,06,18,12,03,26.50
2018,06,18,12,04,26.50
2018,06,18,12,05,26.60
2018,06,18,12,06,26.70
2018,06,18,12,07,26.80
2018,06,18,12,08,26.80
2018,06,18,12,09,26.80
2018,06,18,12,10,26.90
2018,06,18,12,11,26.80
2018,06,18,12,12,26.80
2018,06,18,12,13,26.90
2018,06,18,12,14,26.90
2018,06,18,12,15,26.90
2018,06,18,12,16,27.00
2018,06,18,12,17,27.10
2018,06,18,12,18,27.10
2018,06,18,12,19,27.20
2018,06,18,12,20,27.40
2018,06,18,12,21,27.50
2018,06,18,12,22,27.70
2018,06,18,12,23,27.80
2018,06,18,12,24,28.00
2018,06,18,12,25,28.10
2018,06,18,12,26,28.10
2018,06,18,12,27,28.10
2018,06,18,12,28,28.00
2018,06,18,12,29,27.90
2018,06,18,12,30,27.90
2018,06,18,12,31,27.90
2018,06,18,12,32,28.00
2018,06,18,12,33,27.90
2018,06,18,12,34,27.90
2018,06,18,12,35,28.00
2018,06,18,12,36,28.10
2018,06,18,12,37,28.20
2018,06,18,12,38,28.10
2018,06,18,12,39,27.90
2018,06,18,12,40,27.80
2018,06,18,12,41,27.70
2018,06,18,12,42,27.70
2018,06,18,12,43,27.60
2018,06,18,12,44,27.40
2018,06,18,12,45,27.30
2018,06,18,12,46,27.30
2018,06,18,12,47,27.30
2018,06,18,12,48,27.20
2018,06,18,12,49,27.20
2018,06,18,12,50,27.20
2018,06,18,12,51,27.20
2018,06,18,12,52,27.20
2018,06,18,12,53,27.20
2018,06,18,12,54,27.30
2018,06,18,12,55,27.40
2018,06,18,12,56,27.40
2018,06,18,12,57,27.30
2018,06,18,12,58,27.30
2018,06,18,12,59,27.20
2018,06,18,13,00,27.30
2018,06,18,13,01,27.30
2018,06,18,13,02,27.40
2018,06,18,13,03,27.40
2018,06,18,13,04,27.50
2018,06,18,13,05,27.60
2018,06,18,13,06,27.60
2018,06,18,13,07,27.60
2018,06,18,13,08,27.60
2018,06,18,13,09,27.60
2018,06,18,13,10,27.60
2018,06,18,13,11,27.60
2018,06,18,13,12,27.60
2018,06,18,13,13,27.60
2018,06,18,13,14,27.70
2018,06,18,13,15,27.70
2018,06,18,13,16,27.70
2018,06,18,13,17,27.70
2018,06,18,13,18,27.70
2018,06,18,13,19,27.80
2018,06,18,13,20,27.90
2018,06,18,13,21,28.00
2018,06,18,13,22,28.20
2018,06,18,13,23,28.30
2018,06,18,13,24,28.30
2018,06,18,13,25,28.30
2018,06,18,13,26,28.30
2018,06,18,13,27,28.30
2018,06,18,13,28,28.40
2018,06,18,13,29,28.40
2018,06,18,13,30,28.40
2018,06,18,13,31,28.40
2018,06,18,13,32,28.40
2018,06,18,13,33,28.50
2018,06,18,13,34,28.50
2018,06,18,13,35,28.60
2018,06,18,13,36,28.60
2018,06,18,13,37,28.70
2018,06,18,13,38,28.60
2018,06,18,13,39,28.60
2018,06,18,13,40,28.70
2018,06,18,13,41,28.80
2018,06,18,13,42,28.90
2018,06,18,13,43,29.00
2018,06,18,13,44,28.90
2018,06,18,13,45,28.90
2018,06,18,13,46,28.90
2018,06,18,13,47,28.80
2018,06,18,13,48,28.90
2018,06,18,13,49,28.70
2018,06,18,13,50,28.50
2018,06,18,13,51,28.40
2018,06,18,13,52,28.40
2018,06,18,13,53,28.50
2018,06,18,13,54,28.50
2018,06,18,13,55,28.40
2018,06,18,13,56,28.30
2018,06,18,13,57,28.30
2018,06,18,13,58,28.30
2018,06,18,13,59,28.40
2018,06,18,14,00,28.40
2018,06,18,14,01,28.40
2018,06,18,14,02,28.40
2018,06,18,14,03,28.50
2018,06,18,14,04,28.60
2018,06,18,14,05,28.60
2018,06,18,14,06,28.50
2018,06,18,14,07,28.40
2018,06,18,14,08,28.40
2018,06,18,14,09,28.40
2018,06,18,14,10,28.50
2018,06,18,14,11,28.40
2018,06,18,14,12,28.40
2018,06,18,14,13,28.40
2018,06,18,14,14,28.40
2018,06,18,14,15,28.40
2018,06,18,14,16,28.40
2018,06,18,14,17,28.40
2018,06,18,14,18,28.50
2018,06,18,14,19,28.50
2018,06,18,14,20,28.60
2018,06,18,14,21,28.70
2018,06,18,14,22,28.70
2018,06,18,14,23,28.70
2018,06,18,14,24,28.80
2018,06,18,14,25,29.00
2018,06,18,14,26,29.10
2018,06,18,14,27,29.10
2018,06,18,14,28,29.20
2018,06,18,14,29,29.30
2018,06,18,14,30,29.40
2018,06,18,14,31,29.40
2018,06,18,14,32,29.50
2018,06,18,14,33,29.40
2018,06,18,14,34,29.40
2018,06,18,14,35,29.50
2018,06,18,14,36,29.50
2018,06,18,14,37,29.60
2018,06,18,14,38,29.60
2018,06,18,14,39,29.60
2018,06,18,14,40,29.60
2018,06,18,14,41,29.50
2018,06,18,14,42,29.50
2018,06,18,14,43,29.50
2018,06,18,14,44,29.50
2018,06,18,14,45,29.40
2018,06,18,14,46,29.30
2018,06,18,14,47,29.40
2018,06,18,14,48,29.50
2018,06,18,14,49,29.70
2018,06,18,14,50,29.80
2018,06,18,14,51,29.80
2018,06,18,14,52,29.70
2018,06,18,14,53,29.70
2018,06,18,14,54,29.60
2018,06,18,14,55,29.60
2018,06,18,14,56,29.60
2018,06,18,14,57,29.60
2018,06,18,14,58,29.60
2018,06,18,14,59,29.70
2018,06,18,15,00,29.70
2018,06,18,15,01,29.70
2018,06,18,15,02,29.70
2018,06,18,15,03,29.70
2018,06,18,15,04,29.70
2018,06,18,15,05,29.70
2018,06,18,15,06,29.80
2018,06,18,15,07,29.80
2018,06,18,15,08,29.80
2018,06,18,15,09,29.80
2018,06,18,15,10,29.70
2018,06,18,15,11,29.70
2018,06,18,15,12,29.70
2018,06,18,15,13,29.80
2018,06,18,15,14,29.80
2018,06,18,15,15,29.80
2018,06,18,15,16,29.80
2018,06,18,15,17,29.80
2018,06,18,15,18,29.80
2018,06,18,15,19,29.90
2018,06,18,15,20,30.00
2018,06,18,15,21,30.10
2018,06,18,15,22,30.10
2018,06,18,15,23,30.20
2018,06,18,15,24,30.20
2018,06,18,15,25,30.30
2018,06,18,15,26,30.40
2018,06,18,15,27,30.50
2018,06,18,15,28,30.50
2018,06,18,15,29,30.40
2018,06,18,15,30,30.40
2018,06,18,15,31,30.30
2018,06,18,15,32,30.30
2018,06,18,15,33,30.30
2018,06,18,15,34,30.20
2018,06,18,15,35,30.20
2018,06,18,15,36,30.20
2018,06,18,15,37,30.30
2018,06,18,15,38,30.40
2018,06,18,15,39,30.50
2018,06,18,15,40,30.40
2018,06,18,15,41,30.30
2018,06,18,15,42,30.30
2018,06,18,15,43,30.30
2018,06,18,15,44,30.40
2018,06,18,15,45,30.40
2018,06,18,15,46,30.40
2018,06,18,15,47,30.40
2018,06,18,15,48,30.40
2018,06,18,15,49,30.50
2018,06,18,15,50,30.40
2018,06,18,15,51,30.40
2018,06,18,15,52,30.40
2018,06,18,15,53,30.40
2018,06,18,15,54,30.40
2018,06,18,15,55,30.40
2018,06,18,15,56,30.40
2018,06,18,15,57,30.40
2018,06,18,15,58,30.40
2018,06,18,15,59,30.50
2018,06,18,16,00,30.60
2018,06,18,16,01,30.60
2018,06,18,16,02,30.60
2018,06,18,16,03,30.60
2018,06,18,16,04,30.70
2018,06,18,16,05,30.70
2018,06,18,16,06,30.70
2018,06,18,16,07,30.70
2018,06,18,16,08,30.80
2018,06,18,16,09,30.90
2018,06,18,16,10,30.90
2018,06,18,16,11,31.10
2018,06,18,16,12,31.10
2018,06,18,16,13,31.20
2018,06,18,16,14,31.20
2018,06,18,16,15,31.30
2018,06,18,16,16,31.20
2018,06,18,16,17,31.20
2018,06,18,16,18,31.20
2018,06,18,16,19,31.20
2018,06,18,16,20,31.20
2018,06,18,16,21,31.20
2018,06,18,16,22,31.20
2018,06,18,16,23,31.10
2018,06,18,16,24,31.10
2018,06,18,16,25,31.10
2018,06,18,16,26,31.10
2018,06,18,16,27,31.20
2018,06,18,16,28,31.20
2018,06,18,16,29,31.30
2018,06,18,16,30,31.30
2018,06,18,16,31,31.30
2018,06,18,16,32,31.40
2018,06,18,16,33,31.40
2018,06,18,16,34,31.40
2018,06,18,16,35,31.40
2018,06,18,16,36,31.40
2018,06,18,16,37,31.40
2018,06,18,16,38,31.50
2018,06,18,16,39,31.60
2018,06,18,16,40,31.70
2018,06,18,16,41,31.70
2018,06,18,16,42,31.80
2018,06,18,16,43,31.80
2018,06,18,16,44,31.90
2018,06,18,16,45,31.90
2018,06,18,16,46,31.90
2018,06,18,16,47,31.90
2018,06,18,16,48,32.00
2018,06,18,16,49,32.10
2018,06,18,16,50,32.10
2018,06,18,16,51,32.10
2018,06,18,16,52,31.90
2018,06,18,16,53,31.80
2018,06,18,16,54,31.70
2018,06,18,16,55,31.60
2018,06,18,16,56,31.50
2018,06,18,16,57,31.50
2018,06,18,16,58,31.40
2018,06,18,16,59,31.50
2018,06,18,17,00,31.50
2018,06,18,17,01,31.60
2018,06,18,17,02,31.60
2018,06,18,17,03,31.60
2018,06,18,17,04,31.70
2018,06,18,17,05,31.70
2018,06,18,17,06,31.70
2018,06,18,17,07,31.80
2018,06,18,17,08,31.80
2018,06,18,17,09,31.80
2018,06,18,17,10,31.80
2018,06,18,17,11,31.80
2018,06,18,17,12,31.80
2018,06,18,17,13,31.80
2018,06,18,17,14,31.90
2018,06,18,17,15,32.00
2018,06,18,17,16,32.10
2018,06,18,17,17,32.20
2018,06,18,17,18,32.30
2018,06,18,17,19,32.30